TimeEDT,TemperatureF,Dew PointF,Humidity,Sea Level PressureIn,VisibilityMPH,Wind Direction,Wind SpeedMPH,Gust SpeedMPH,PrecipitationIn,Events,Conditions,WindDirDegrees,DateUTC
12:56 AM,39.0,37.0,93,30.38,10.0,ENE,3.5,-,N/A,,Clear,70,2013-10-09 04:56:00
1:56 AM,37.9,36.0,93,30.39,10.0,East,4.6,-,N/A,,Clear,90,2013-10-09 05:56:00
2:56 AM,37.0,36.0,96,30.39,10.0,East,3.5,-,N/A,,Clear,80,2013-10-09 06:56:00
3:56 AM,37.0,35.1,93,30.39,10.0,East,3.5,-,N/A,,Clear,90,2013-10-09 07:56:00
4:56 AM,36.0,34.0,93,30.40,10.0,East,4.6,-,N/A,,Clear,90,2013-10-09 08:56:00
5:56 AM,35.1,34.0,96,30.40,10.0,East,4.6,-,N/A,,Clear,90,2013-10-09 09:56:00
6:56 AM,35.1,33.1,92,30.42,10.0,East,4.6,-,N/A,,Clear,100,2013-10-09 10:56:00
7:56 AM,36.0,35.1,97,30.43,10.0,East,3.5,-,N/A,,Clear,100,2013-10-09 11:56:00
8:56 AM,46.9,43.0,86,30.43,10.0,Calm,Calm,-,N/A,,Clear,0,2013-10-09 12:56:00
9:56 AM,57.0,48.0,72,30.44,10.0,Calm,Calm,-,N/A,,Clear,0,2013-10-09 13:56:00
10:56 AM,61.0,44.1,54,30.43,10.0,Calm,Calm,-,N/A,,Clear,0,2013-10-09 14:56:00
11:56 AM,64.0,43.0,46,30.43,10.0,West,6.9,-,N/A,,Clear,270,2013-10-09 15:56:00
12:56 PM,66.0,39.0,37,30.40,10.0,WSW,5.8,-,N/A,,Clear,240,2013-10-09 16:56:00
1:56 PM,66.0,42.1,42,30.38,10.0,West,9.2,-,N/A,,Clear,270,2013-10-09 17:56:00
2:56 PM,64.9,44.1,47,30.36,10.0,West,8.1,-,N/A,,Clear,260,2013-10-09 18:56:00
3:56 PM,64.9,44.1,47,30.34,10.0,West,5.8,-,N/A,,Clear,270,2013-10-09 19:56:00
4:56 PM,63.0,45.0,52,30.34,10.0,WNW,4.6,-,N/A,,Clear,290,2013-10-09 20:56:00
5:56 PM,61.0,45.0,56,30.33,10.0,NW,3.5,-,N/A,,Clear,320,2013-10-09 21:56:00
6:56 PM,51.1,46.0,83,30.33,10.0,Calm,Calm,-,N/A,,Clear,0,2013-10-09 22:56:00
7:56 PM,46.0,43.0,89,30.33,10.0,Calm,Calm,-,N/A,,Clear,0,2013-10-09 23:56:00
8:56 PM,45.0,43.0,93,30.33,10.0,East,3.5,-,N/A,,Clear,100,2013-10-10 00:56:00
9:56 PM,43.0,41.0,93,30.32,10.0,Calm,Calm,-,N/A,,Clear,0,2013-10-10 01:56:00
10:56 PM,42.1,41.0,96,30.32,10.0,East,3.5,-,N/A,,Clear,100,2013-10-10 02:56:00
11:56 PM,39.0,37.9,96,30.31,10.0,Calm,Calm,-,N/A,,Clear,0,2013-10-10 03:56:00